Find Starlink 34682

NORAD ID: 64854 Int'l Des: 2025-152 Owner: SPXS Country: US Constellation: starlink operational
LEOCIRCULARRETROGRADESSO

当前视图

正在加载3D地球...

About Starlink 34682

Starlink 34682 (NORAD 64854) is a starlink constellation satellite (v2 mini) launched Jul 19, 2025 by SPXS of US. It operates in LEO, CIRCULAR, RETROGRADE, SSO orbit with a mass of 575.00 kg.

即将过境

Passes for default location (London). Set your location on the main map for personalized predictions.

高度历史

Loading altitude history...

两行轨道根数

1 64854U 25152N 26263.48046932 .00014258 00000-0 44296-3 0 9995
2 64854 97.2851 114.0854 0002405 81.7215 278.4300 15.33455026 64827
Epoch: Sep 20, 2026 • Age: 11 hours

当前状态

高度 483.9 km
远地点 / 近地点 N/A
速度 7.62 km/s
星下点 -44.97°S, 147.55°E
发射日期 Jul 19, 2025
运行时间 1.1 years
类型 internet

技术详情

分类 Payload
质量 575.00 kg
干质量 530.00 kg
长度 0.30 m
跨度 29.00 m
形状 ? Box + pan
制造商 SPXS
平台类型 Starlink V2MO
阶段状态 In Orbit
所有者/国家 SPXS/US

Most Searched